TimeEET,TemperatureF,Dew PointF,Humidity,Sea Level PressureIn,VisibilityMPH,Wind Direction,Wind SpeedMPH,Gust SpeedMPH,PrecipitationIn,Events,Conditions,WindDirDegrees,DateUTC
12:50 AM,50.0,39.2,66,30.04,6.2,North,4.6,-,N/A,,Partly Cloudy,10,2013-02-26 22:50:00
1:50 AM,48.2,39.2,71,30.04,6.2,Calm,Calm,-,N/A,,Partly Cloudy,0,2013-02-26 23:50:00
2:50 AM,50.0,41.0,71,30.04,6.2,Calm,Calm,-,N/A,,Partly Cloudy,0,2013-02-27 00:50:00
3:50 AM,48.2,41.0,76,30.01,6.2,Calm,Calm,-,N/A,,Partly Cloudy,0,2013-02-27 01:50:00
4:50 AM,48.2,41.0,76,29.98,6.2,Calm,Calm,-,N/A,,Mostly Cloudy,0,2013-02-27 02:50:00
5:20 AM,48.2,41.0,76,29.98,6.2,Calm,Calm,-,N/A,,Mostly Cloudy,0,2013-02-27 03:20:00
5:50 AM,50.0,41.0,71,29.98,6.2,Calm,Calm,-,N/A,,Mostly Cloudy,0,2013-02-27 03:50:00
6:20 AM,50.0,41.0,71,29.98,6.2,Calm,Calm,-,N/A,,Mostly Cloudy,0,2013-02-27 04:20:00
6:50 AM,50.0,39.2,66,29.98,6.2,Calm,Calm,-,N/A,,Mostly Cloudy,0,2013-02-27 04:50:00
7:20 AM,50.0,41.0,71,29.98,6.2,Calm,Calm,-,N/A,,Mostly Cloudy,0,2013-02-27 05:20:00
7:50 AM,50.0,41.0,71,29.98,6.2,Calm,Calm,-,N/A,,Mostly Cloudy,0,2013-02-27 05:50:00
8:20 AM,50.0,41.0,71,29.98,6.2,Calm,Calm,-,N/A,,Mostly Cloudy,0,2013-02-27 06:20:00
8:50 AM,53.6,41.0,62,29.98,6.2,Calm,Calm,-,N/A,,Mostly Cloudy,0,2013-02-27 06:50:00
9:20 AM,53.6,41.0,62,29.98,6.2,Calm,Calm,-,N/A,,Scattered Clouds,0,2013-02-27 07:20:00
9:50 AM,55.4,42.8,63,29.98,6.2,Variable,3.5,-,N/A,,Mostly Cloudy,0,2013-02-27 07:50:00
10:20 AM,53.6,41.0,62,29.98,6.2,Calm,Calm,-,N/A,,Mostly Cloudy,0,2013-02-27 08:20:00
10:50 AM,55.4,41.0,58,29.98,6.2,West,4.6,-,N/A,,Mostly Cloudy,280,2013-02-27 08:50:00
11:20 AM,57.2,39.2,51,29.98,6.2,NW,6.9,-,N/A,,Mostly Cloudy,310,2013-02-27 09:20:00
11:50 AM,57.2,35.6,44,29.98,6.2,NW,11.5,-,N/A,,Mostly Cloudy,310,2013-02-27 09:50:00
12:20 PM,57.2,33.8,41,29.98,6.2,West,11.5,-,N/A,,Scattered Clouds,270,2013-02-27 10:20:00
12:50 PM,57.2,33.8,41,29.98,6.2,WSW,13.8,-,N/A,,Scattered Clouds,250,2013-02-27 10:50:00
1:20 PM,57.2,33.8,41,29.98,6.2,West,12.7,-,N/A,,Scattered Clouds,270,2013-02-27 11:20:00
1:50 PM,59.0,33.8,39,29.95,6.2,West,16.1,-,N/A,,Scattered Clouds,260,2013-02-27 11:50:00
2:20 PM,59.0,32.0,36,29.95,6.2,West,16.1,-,N/A,,Scattered Clouds,280,2013-02-27 12:20:00
2:50 PM,59.0,33.8,39,29.95,6.2,West,11.5,23.0,N/A,,Scattered Clouds,270,2013-02-27 12:50:00
3:20 PM,59.0,33.8,39,29.95,6.2,West,11.5,-,N/A,,Scattered Clouds,260,2013-02-27 13:20:00
3:50 PM,59.0,33.8,39,29.92,6.2,West,11.5,-,N/A,,Scattered Clouds,280,2013-02-27 13:50:00
4:20 PM,59.0,33.8,39,29.92,6.2,West,11.5,-,N/A,,Scattered Clouds,280,2013-02-27 14:20:00
4:50 PM,59.0,33.8,39,29.92,6.2,West,10.4,-,N/A,,Scattered Clouds,260,2013-02-27 14:50:00
5:20 PM,57.2,33.8,41,29.92,6.2,WNW,10.4,-,N/A,,Scattered Clouds,290,2013-02-27 15:20:00
5:50 PM,55.4,33.8,44,29.95,6.2,WNW,11.5,-,N/A,,Scattered Clouds,300,2013-02-27 15:50:00
6:20 PM,53.6,33.8,47,29.95,6.2,NW,8.1,-,N/A,,Scattered Clouds,310,2013-02-27 16:20:00
6:50 PM,53.6,37.4,54,29.98,6.2,Calm,Calm,-,N/A,,Scattered Clouds,0,2013-02-27 16:50:00
7:20 PM,51.8,37.4,58,29.98,6.2,North,9.2,-,N/A,,Scattered Clouds,350,2013-02-27 17:20:00
7:50 PM,51.8,39.2,62,29.98,6.2,North,4.6,-,N/A,,Scattered Clouds,350,2013-02-27 17:50:00
8:20 PM,51.8,39.2,62,29.98,6.2,North,4.6,-,N/A,,Scattered Clouds,350,2013-02-27 18:20:00
8:50 PM,50.0,39.2,66,29.98,6.2,Calm,Calm,-,N/A,,Partly Cloudy,0,2013-02-27 18:50:00
9:20 PM,50.0,39.2,66,29.98,-9999.0,NNW,10.4,-,N/A,,Clear,340,2013-02-27 19:20:00
9:50 PM,50.0,39.2,66,30.01,-9999.0,NNW,9.2,-,N/A,,Clear,340,2013-02-27 19:50:00
10:20 PM,50.0,39.2,66,30.01,-9999.0,NNW,12.7,-,N/A,,Clear,330,2013-02-27 20:20:00
10:50 PM,50.0,37.4,62,30.04,6.2,NNW,5.8,-,N/A,,Mostly Cloudy,330,2013-02-27 20:50:00
11:50 PM,48.2,37.4,66,30.04,6.2,WNW,5.8,-,N/A,,Scattered Clouds,290,2013-02-27 21:50:00